[Iaude] MPEC U47: 2023 TP22 [a=2.32,e=0.63,i=2.8,H=22.4]

mpec at marsden.cfa.harvard.edu mpec at marsden.cfa.harvard.edu
Tue Oct 17 11:51:16 EDT 2023


M.P.E.C. 2023-U47                              Issued 2023 October 17, 15:48 UT

     The Minor Planet Electronic Circulars contain information on unusual
         minor planets, routine data on comets and natural satellites,
         and occasional editorial announcements.  They are published
    on behalf of Division F of the International Astronomical Union by the
          Minor Planet Center, Smithsonian Astrophysical Observatory,
                          Cambridge, MA 02138, U.S.A.
			  
             Prepared using the Tamkin Foundation Computer Network

                              MPC at CFA.HARVARD.EDU
            URL https://www.minorplanetcenter.net/    ISSN 1523-6714

                                   2023 TP22                                    


Observations:
     K23T22P* C2023 10 15.20219103 25 04.586-35 30 43.74         17.58oVEU047W68
     K23T22P  C2023 10 15.20496203 25 02.738-35 29 39.08         17.53oVEU047W68
     K23T22P  C2023 10 15.20915103 24 59.868-35 27 58.43         17.66oVEU047W68
     K23T22P  C2023 10 15.23419203 24 42.931-35 18 01.15         17.46oVEU047W68
     K23T22P KC2023 10 15.68168503 20 29.59 -32 28 22.7          17.7 GVEU047900
     K23T22P KC2023 10 15.68903703 20 25.33 -32 25 40.0          18.0 GVEU047900
     K23T22P KC2023 10 15.69638903 20 21.02 -32 22 57.9          18.0 GVEU047900
     K23T22P  C2023 10 15.77586903 19 50.616-31 50 20.15         18.05oVEU047M22
     K23T22P  C2023 10 15.77632103 19 50.364-31 50 10.90         17.97oVEU047M22
     K23T22P  C2023 10 15.77677103 19 50.143-31 49 59.41         18.07oVEU047M22
     K23T22P  C2023 10 15.77722203 19 49.908-31 49 51.64         18.07oVEU047M22
     K23T22P  C2023 10 15.77767203 19 49.750-31 49 41.88         17.41oVEU047M22
     K23T22P  C2023 10 16.14453403 16 50.19 -29 41 28.3                WEU047X09
     K23T22P  C2023 10 16.14690203 16 49.00 -29 40 40.3                WEU047X09
     K23T22P  C2023 10 16.95216003 11 17.690-25 25 48.00         17.93oVEU047M22
     K23T22P  C2023 10 16.95554703 11 16.282-25 24 48.92         17.91oVEU047M22
     K23T22P  C2023 10 16.95880303 11 14.923-25 23 51.61         17.86oVEU047M22
     K23T22P  C2023 10 16.96404603 11 12.734-25 22 19.52         17.86oVEU047M22
     K23T22P 1C2023 10 17.00016 03 10 55.41 -25 14 14.8          18.5 GVEU047C40
     K23T22P 1C2023 10 17.00472 03 10 53.53 -25 12 54.4          18.7 GVEU047C40
     K23T22P 1C2023 10 17.00936 03 10 51.71 -25 11 32.6          18.8 GVEU047C40
     K23T22P 1C2023 10 17.01435 03 10 49.74 -25 10 05.1          18.3 GVEU047C40
     K23T22P 1C2023 10 17.01896 03 10 47.86 -25 08 43.4          18.2 GVEU047C40
     K23T22P 1C2023 10 17.02350 03 10 46.00 -25 07 23.7          18.6 GVEU047C40
     K23T22P  C2023 10 17.24987 03 09 35.47 -24 02 43.7          17.2 VtEU047V27
     K23T22P  C2023 10 17.26984 03 09 27.84 -23 57 12.7          18.2 VtEU047V27
     K23T22P  C2023 10 17.27372 03 09 26.41 -23 56 09.2          18.6 VtEU047V27
     K23T22P  C2023 10 17.28318 03 09 22.87 -23 53 33.3          17.4 VtEU047V27
     K23T22P  C2023 10 17.28709 03 09 21.27 -23 52 29.6          18.6 VtEU047V27
     K23T22P  C2023 10 17.29323 03 09 18.87 -23 50 48.4          18.7 VtEU047V27
     K23T22P 1C2023 10 17.35950603 08 54.352-23 32 33.50         18.32GVEU047703
     K23T22P 1C2023 10 17.37989603 08 46.702-23 26 58.31               VEU047703
     K23T22P 1C2023 10 17.39150903 08 42.212-23 23 50.14         18.32GVEU047703
     K23T22P 1C2023 10 17.39640003 08 40.366-23 22 28.88         18.24GVEU047703
     K23T22P KC2023 10 17.61501103 07 35.62 -22 24 17.5          18.2 GVEU047900
     K23T22P KC2023 10 17.62237003 07 33.00 -22 22 22.9          18.0 GVEU047900
     K23T22P KC2023 10 17.62972903 07 30.39 -22 20 28.2          18.0 GVEU047900

Observer details:
703 Catalina Sky Survey.  Observer G. J. Leonard.  Measurers E. C. Beshore, D.
    Fay, J. B. Fazekas, D. C. Fuls, A. R. Gibbs, A. D. Grauer, H. Groeller, J.
    K. Hogan, R. A. Kowalski, S. M. Larson, G. J. Leonard, D. Rankin, R. L.
    Seaman, F. C. Shelly, K. W. Wierzchos.  0.68-m Schmidt + 10K CCD.
900 Moriyama.  Observer Y. Ikari.  0.26-m f/7.0 reflector + CCD.
C40 Kuban State University Astrophysical Observatory.  Observers A. Ivanov, A.
    Barcov, V. Ivanov, V. Lysenko, N. Yakovenko, N. Ivanova, N. Gorbunov, G.
    Kurbatov, P. Shchukin, V. Roshchupko.  Measurer A. Ivanov.  0.51-m f/8
    reflector + CCD.
M22 ATLAS South Africa, Sutherland.  Observers L. Denneau, R. Siverd, J.
    Tonry, H. Weiland.  Measurers L. Denneau, N. Erasmus, A. Fitzsimmons, A.
    Lawrence, J. Robinson, R. Siverd, J. Tonry, H. Weiland.  0.5-m Reflector +
    CCD.
V27 North Mesa Observatory, Los Alamos.  Observer B. K. Kendrick.  0.25-m f/6
    reflector + CCD.
W68 ATLAS Chile, Rio Hurtado.  Observers L. Denneau, R. Siverd, J. Tonry, H.
    Weiland.  Measurers L. Denneau, N. Erasmus, A. Fitzsimmons, A. Lawrence,
    J. Robinson, R. Siverd, J. Tonry, H. Weiland.  0.5-m Reflector + CCD.
X09 Deep Random Survey, Rio Hurtado.  Observers A. Schnabel, D. Ruhela.
    Measurer S. Deen.  0.43-m reflector + CMOS.

Orbital elements:
2023 TP22                                                Earth MOID = 0.0139 AU
Epoch 2023 Sept. 13.0 TT = JDT 2460200.5                Veres                   
M   2.04942              (2000.0)            P               Q                  
n   0.27916651     Peri.  249.18765     +0.83466570     +0.54867469             
a   2.3186071      Node    77.50764     -0.48533708     +0.77380783             
e   0.6286770      Incl.    2.80898     -0.26034800     +0.31650833             
P   3.53           H   22.49          G   0.15           U   8                  
Residuals in seconds of arc
231015 W68  0.2-  0.6+    231016 X09  0.1-  0.1-    231017 V27  0.0   0.1+
231015 W68  0.2+  0.8-    231016 M22  0.1-  0.1+    231017 V27  0.9+  0.1-
231015 W68  0.1-  0.1-    231016 M22  0.0   0.2-    231017 V27  0.6-  1.0-
231015 W68  0.1+  0.2+    231016 M22  0.0   0.0     231017 V27  1.4-  1.0-
231015 900  0.5-  0.3-    231016 M22  0.1-  0.1+    231017 703  0.1-  0.6-
231015 900  0.2+  0.4-    231017 C40  0.3+  0.3-    231017 703  1.4+  0.8+
231015 900  0.1+  1.0-    231017 C40  0.3-  0.1-    231017 703  0.1+  1.0-
231015 M22  0.1+  0.1-    231017 C40  0.4+  0.2+    231017 703  0.1+  0.3+
231015 M22  0.2-  0.5-    231017 C40  0.8+  0.1+    231017 900  0.1+  0.5-
231015 M22  0.1-  1.4+    231017 C40  0.4+  0.9+    231017 900  0.0   0.3-
231015 M22  0.1-  0.4-    231017 C40  0.3-  1.0+    231017 900  0.0   0.0
231015 M22  0.8+  0.3-    231017 V27  0.2+  0.1-
231016 X09  0.1-  0.4-    231017 V27  0.6-  0.7+

Ephemeris:
2023 TP22                a,e,i = 2.32, 0.63, 3                   q = 0.8610
Date    TT    R. A. (2000) Decl.     Delta      r    Elong.  Phase     V
2023 09 17    14 06 45.5 -25 47 37   0.2033  0.8769    46.1   124.2    23.9
...
2023 10 02    13 48 02.6 -44 21 29   0.08558 0.9420    44.5   131.8    22.9
...
2023 10 10    07 48 50.7 -75 47 13   0.04389 0.9928    80.8    96.7    19.2
...
2023 10 16    03 17 50.7 -30 31 54   0.05718 1.0362   132.0    45.7    18.1
2023 10 17    03 10 57.8 -25 12 22   0.06282 1.0439   137.2    40.4    18.2
2023 10 18    03 05 38.8 -20 45 40   0.06897 1.0515   141.7    36.0    18.3
...
2023 10 24    02 48 33.1 -05 16 22   0.1119  1.0995   158.1    19.7    18.9
...
2023 11 01    02 39 04.0 +03 07 06   0.1775  1.1670   168.2    10.0    19.7
...
2023 11 16    02 32 25.8 +09 22 27   0.3198  1.3004   164.8    11.5    21.3

M. P. C. Staff               (C) Copyright 2023 MPC           M.P.E.C. 2023-U47





More information about the Iaude mailing list